Regional Weather Roundup
Issued by NWS Upton, NY

Current Version | Previous Version | Graphics & Text | Print | Product List | Glossary Off
Versions: 1 2 3 4 5 6 7 8 9 10 11 12 13 14 15 16 17 18 19 20 21 22 23 24 25 26 27

000
ASUS41 KOKX 272304
RWROKX

REGIONAL WEATHER ROUNDUP
NATIONAL WEATHER SERVICE NEW YORK NY
700 PM EDT SAT AUG 27 2016

NOTE: "FAIR" INDICATES FEW OR NO CLOUDS BELOW 12,000 FEET WITH NO
SIGNIFICANT WEATHER AND/OR OBSTRUCTIONS TO VISIBILITY.

NYZ071-072-176-178-NJZ106-104-280000-
NEW YORK CITY METRO AREA

CITY           SKY/WX    TMP DP  RH WIND       PRES   REMARKS
Central Park   NOT AVBL
LaGuardia APRT MOCLDY    84  56  38 SE10      30.17S
Kennedy INTL   MOCLDY    81  59  47 SE7       30.19S
Newark/Liberty MOCLDY    82  55  39 SE8       30.17S
Bronx Bot Gard   N/A     81  57  44 CALM      30.18F
Wall St Helipt PTCLDY    84  57  39 E5        30.18S
Teterboro      CLEAR     83  56  39 S7        30.16S
$$

NYZ177-179-078>081-280000-
LONG ISLAND NEW YORK

CITY           SKY/WX    TMP DP  RH WIND       PRES   REMARKS
Farmingdale    PTCLDY    80  58  46 S7        30.18S
MacArthur/ISP  MOCLDY    79  57  46 SE6       30.18S
Shirley        CLEAR     79  58  48 VRB5      30.19S
Riverhead      NOT AVBL
Westhampton    CLEAR     77  62  59 S5        30.20S
Southampton      N/A     75  68  78 S5        30.15S
Bridgehampton    N/A     75  64  69 CALM      30.18R
East Hampton   FAIR      75  66  74 CALM      30.19R
Montauk          N/A     76  66  71 CALM      30.20S
$$

NYZ052-065-067-280000-
HUDSON VALLEY

CITY           SKY/WX    TMP DP  RH WIND       PRES   REMARKS
White Plains   CLEAR     77  60  55 S3        30.18S
Newburgh       PTCLDY    82  66  57 SW6       30.19S
Montgomery     CLEAR     80  68  66 CALM      30.17R
Poughkeepsie   PTCLDY    83  62  49 CALM      30.15S
Albany         PTCLDY    82  63  52 SE3       30.16S
$$

NJZ001-105-106-008-010-013-015-019>022-104-280000-
NEW JERSEY

CITY           SKY/WX    TMP DP  RH WIND       PRES   REMARKS
Newark/Liberty MOCLDY    82  55  39 SE8       30.17S
Teterboro      CLEAR     83  56  39 S7        30.16S
Caldwell       CLEAR     84  57  39 S6        30.17S
Morristown     PTCLDY    82  57  42 S5        30.17S
Somerville     CLEAR     79  63  57 CALM      30.15R
Linden         FAIR      82  56  41 SE6       30.19R
Sussex         PTCLDY    78  69  73 CALM      30.18S
Abdover          N/A     77  69  76 CALM      30.18S
Trenton        PTCLDY    82  58  43 SE9       30.16S
Millville      CLEAR     81  70  69 SE8       30.16R
Atlantic City  CLEAR     79  67  66 E8        30.16S
Wrightstown    CLEAR     78  63  59 SE6       30.14S
Toms River     MOCLDY    78  68  71 E3        30.18S
Belmar         MOCLDY    78  66  66 E6        30.19S
$$

PAZ047>061-062-071-280000-
EASTERN PENNSYLVANIA

CITY           SKY/WX    TMP DP  RH WIND       PRES   REMARKS
Philadelphia   MOCLDY    86  62  44 E12       30.15R
Allentown      PTCLDY    86  61  42 E7        30.16S
Scranton       CLOUDY    80  64  58 SW5       30.19R
$$

CTZ002-004>006-009-010-012-RIZ004-006-007-MAZ004-011-015-280000-
SOUTHERN NEW ENGLAND
 IN CT

CITY           SKY/WX    TMP DP  RH WIND       PRES   REMARKS
Bradley INTL   PTCLDY    84  60  44 S7        30.16S
Hartford       CLEAR     85  62  46 S9        30.16R
Danbury        CLEAR     79  61  53 S5        30.19S
Wtrbury/Oxford CLEAR     79  59  50 SW5       30.23S
Bridgeport     CLEAR     82  64  54 S6        30.17S
Meriden        CLEAR     82  60  47 S5        30.17S
New Haven      PTCLDY    80  66  62 SE6       30.18S
Chester        FAIR      79  63  57 CALM      30.19S
Groton         PTCLDY    77  67  71 SE7       30.18S
Wilimantic     CLEAR     81  63  54 S7        30.18S

 IN RI

CITY           SKY/WX    TMP DP  RH WIND       PRES   REMARKS
Providence     PTCLDY    78  63  59 SE9       30.19R
Block Island   CLEAR     75  66  73 S6        30.20S
Westerly       CLEAR     77  61  57 S6        30.20R
 IN MA

CITY           SKY/WX    TMP DP  RH WIND       PRES   REMARKS
Boston         PTCLDY    73  59  61 E14       30.19R
Worcester      CLEAR     79  58  48 W3        30.21S
Westfield      MOCLDY    83  62  49 CALM      30.16R
Provincetown   CLEAR     73  59  61 E7        30.20R
Nantucket      CLEAR     71  62  73 NE7       30.19R
$$

ANZ330-335-338-340-345-350-353-355-280000-
COASTAL MARINE OBSERVATIONS


STATION/POSITION TIME  SKY/WX   TEMP    WIND        PRES    VSBY  WAVE
                                AIR SEA DIR/SP/G                  HT/PER
                 (UTC)          (F)     (DEG/KT/KT) (MB)    (MI)  (FT/S)
NY HARB ENTRANCE 2150            76 76  120/  4/  4 1021.8          2/ 9
20S FIRE ISLAND  2150            76 76   70/  6/  8 1021.5          2/10
GREAT SOUTH BAY  2215            76 80  150/  6/  8   N/A
23 SSW MONTAUK P 2150            76 78  150/  6/  8 1022.2          2/10
15 E BARNEGAT LI 2200               77                N/A           3/10
HUDSON CANYON    2150            77 78              1021.0          4/ 5
KINGS POINT      2200            81 77              1021.6
EXECUTION ROCKS  2200            87     160/  2/  4   N/A
CENTRAL LI SOUND 2200            81 77  170/  8/  8   N/A           1
EASTERN LI SOUND 2200            74 71  160/  4/  6   N/A
ROBBINS REEF     2206            78     180/ 12/ 13 1021.0
$$


>>>>>>>>>>>>>>>>>>>>>>>>>>>> KEY <<<<<<<<<<<<<<<<<<<<<<<<<<<
>                                                          <
>     SKY/WX - Sky Condition/Present Weather               <
>     TMP    - Temperature in Fahrenheit                   <
>     DP     - Dew Point in Fahrenheit                     <
>     RH     - Relative Humidity in Percent                <
>     WIND   - Direction (from) and Speed in MPH           <
>     PRES   - Mean Sea Level Pressure (inches of Hg)      <
>     WCI    - Wind Chill Index                            <
>     VSB    - VISIBILITY IN MILES                         <
>     HX     - HEAT INDEX                                  <
>     TC     - TEMPERATURE IN CELSIUS                      <
>     VRB    - VARIABLE WIND DIRECTION                     <
>                                                          <
>>>>>>>>>>>>>>>>>>>>>>>>>>>> KEY <<<<<<<<<<<<<<<<<<<<<<<<<<<




USA.gov is the U.S. government's official web portal to all federal, state and local government web resources and services.